• Em Portugal
  • Lista de países
  • Para 7 dias
  • Temperatura da água
  • Mapas de satélite
  • Mapa do tempo
  • Widgets de tempo
  • user-avatar
    Iniciar Sessão

    Previsão horária em Ghazni

    Hoje, 20 Setembro, Quinta-feira

    Tempo Temperatura Precipitação Vento Pressão Humidade
    00:00 +19°C° 0 mm 2 m/s 587 mmHg 15%
    01:00 +18°C° 0 mm 2 m/s 587 mmHg 17%
    02:00 +17°C° 0 mm 2 m/s 587 mmHg 19%
    03:00 +17°C° 0 mm 2 m/s 587 mmHg 20%
    04:00 +16°C° 0 mm 2 m/s 586 mmHg 21%
    05:00 +16°C° 0 mm 2 m/s 586 mmHg 22%
    06:00 +16°C° 0 mm 2 m/s 587 mmHg 21%
    07:00 +17°C° 0 mm 2 m/s 588 mmHg 19%
    08:00 +18°C° 0 mm 2 m/s 588 mmHg 18%
    09:00 +20°C° 0 mm 2 m/s 589 mmHg 16%
    10:00 +22°C° 0 mm 1 m/s 589 mmHg 14%
    11:00 +24°C° 0 mm 1 m/s 590 mmHg 11%
    12:00 +24°C° 0 mm 2 m/s 590 mmHg 10%
    13:00 +25°C° 0 mm 2 m/s 590 mmHg 10%
    14:00 +26°C° 0 mm 2 m/s 590 mmHg 9%
    15:00 +26°C° 0 mm 2 m/s 590 mmHg 9%
    16:00 +27°C° 0 mm 3 m/s 590 mmHg 9%
    17:00 +27°C° 0 mm 3 m/s 589 mmHg 9%
    18:00 +25°C° 0 mm 3 m/s 589 mmHg 10%
    19:00 +24°C° 0 mm 2 m/s 589 mmHg 12%
    20:00 +23°C° 0 mm 2 m/s 589 mmHg 14%
    21:00 +21°C° 0 mm 2 m/s 589 mmHg 15%
    22:00 +20°C° 0 mm 2 m/s 589 mmHg 17%
    23:00 +19°C° 0 mm 2 m/s 588 mmHg 19%

    Amanhã, 21 Setembro, Sexta-feira

    Tempo Temperatura Precipitação Vento Pressão Humidade
    00:00 +19°C° 0 mm 2 m/s 588 mmHg 21%
    01:00 +18°C° 0 mm 2 m/s 588 mmHg 24%
    02:00 +17°C° 0 mm 2 m/s 588 mmHg 26%
    03:00 +17°C° 0 mm 2 m/s 587 mmHg 27%
    04:00 +16°C° 0 mm 2 m/s 587 mmHg 27%
    05:00 +16°C° 0 mm 2 m/s 587 mmHg 28%
    06:00 +16°C° 0 mm 2 m/s 588 mmHg 27%
    07:00 +17°C° 0 mm 2 m/s 589 mmHg 26%
    08:00 +18°C° 0 mm 2 m/s 589 mmHg 25%
    09:00 +19°C° 0 mm 2 m/s 590 mmHg 24%
    10:00 +20°C° 0 mm 2 m/s 590 mmHg 23%
    11:00 +23°C° 0 mm 2 m/s 591 mmHg 22%
    12:00 +24°C° 0 mm 3 m/s 591 mmHg 19%
    13:00 +25°C° 0 mm 3 m/s 591 mmHg 16%
    14:00 +26°C° 0 mm 4 m/s 591 mmHg 14%
    15:00 +26°C° 0 mm 4 m/s 590 mmHg 13%
    16:00 +26°C° 0 mm 4 m/s 590 mmHg 12%
    17:00 +26°C° 0 mm 5 m/s 590 mmHg 11%
    18:00 +25°C° 0 mm 4 m/s 590 mmHg 12%
    19:00 +24°C° 0 mm 3 m/s 589 mmHg 13%
    20:00 +21°C° 0 mm 2 m/s 589 mmHg 15%
    21:00 +20°C° 0 mm 2 m/s 589 mmHg 18%
    22:00 +20°C° 0 mm 2 m/s 589 mmHg 21%
    23:00 +19°C° 0 mm 2 m/s 589 mmHg 25%

    Depois de amanhã, 22 Setembro, Sábado

    Tempo Temperatura Precipitação Vento Pressão Humidade
    00:00 +18°C° 0 mm 2 m/s 589 mmHg 28%
    01:00 +17°C° 0 mm 2 m/s 588 mmHg 31%
    02:00 +17°C° 0 mm 2 m/s 588 mmHg 35%
    03:00 +16°C° 0 mm 2 m/s 588 mmHg 37%
    04:00 +16°C° 0 mm 2 m/s 588 mmHg 39%
    05:00 +15°C° 0 mm 2 m/s 587 mmHg 41%
    06:00 +16°C° 0 mm 2 m/s 588 mmHg 41%
    07:00 +17°C° 0 mm 2 m/s 589 mmHg 40%
    08:00 +18°C° 0 mm 1 m/s 589 mmHg 40%
    09:00 +19°C° 0 mm 2 m/s 590 mmHg 34%
    10:00 +20°C° 0 mm 2 m/s 590 mmHg 28%
    11:00 +23°C° 0 mm 2 m/s 590 mmHg 23%
    12:00 +24°C° 0 mm 3 m/s 590 mmHg 20%
    13:00 +25°C° 0 mm 4 m/s 590 mmHg 17%
    14:00 +26°C° 0 mm 5 m/s 590 mmHg 14%
    15:00 +26°C° 0 mm 5 m/s 590 mmHg 13%
    16:00 +26°C° 0 mm 5 m/s 589 mmHg 13%
    17:00 +26°C° 0 mm 5 m/s 589 mmHg 12%
    18:00 +25°C° 0 mm 4 m/s 589 mmHg 13%
    19:00 +22°C° 0 mm 3 m/s 589 mmHg 15%
    20:00 +21°C° 0 mm 3 m/s 589 mmHg 16%
    21:00 +20°C° 0 mm 2 m/s 589 mmHg 19%
    22:00 +19°C° 0 mm 2 m/s 589 mmHg 21%
    23:00 +18°C° 0 mm 2 m/s 589 mmHg 24%

    23 Setembro, Domingo

    Tempo Temperatura Precipitação Vento Pressão Humidade
    00:00 +18°C° 0 mm 2 m/s 588 mmHg 27%
    01:00 +17°C° 0 mm 2 m/s 588 mmHg 31%
    02:00 +16°C° 0 mm 2 m/s 588 mmHg 34%
    03:00 +16°C° 0 mm 1 m/s 587 mmHg 37%
    04:00 +15°C° 0 mm 1 m/s 587 mmHg 40%
    05:00 +14°C° 0 mm 1 m/s 587 mmHg 42%
    06:00 +15°C° 0 mm 1 m/s 588 mmHg 41%
    07:00 +16°C° 0 mm 1 m/s 588 mmHg 40%
    08:00 +18°C° 0 mm 1 m/s 589 mmHg 39%
    09:00 +18°C° 0 mm 2 m/s 589 mmHg 35%
    10:00 +19°C° 0 mm 2 m/s 590 mmHg 30%
    11:00 +20°C° 0 mm 2 m/s 590 mmHg 26%
    12:00 +21°C° 0 mm 2 m/s 590 mmHg 23%
    13:00 +22°C° 0 mm 3 m/s 590 mmHg 20%
    14:00 +24°C° 0 mm 3 m/s 590 mmHg 16%
    15:00 +25°C° 0 mm 3 m/s 589 mmHg 15%
    16:00 +25°C° 0 mm 4 m/s 589 mmHg 14%
    17:00 +25°C° 0 mm 4 m/s 589 mmHg 13%
    18:00 +22°C° 0 mm 3 m/s 589 mmHg 15%
    19:00 +21°C° 0 mm 2 m/s 589 mmHg 16%
    20:00 +21°C° 0 mm 1 m/s 588 mmHg 18%
    21:00 +20°C° 0 mm 1 m/s 588 mmHg 22%
    22:00 +19°C° 0 mm 2 m/s 588 mmHg 26%
    23:00 +18°C° 0 mm 2 m/s 588 mmHg 30%

    24 Setembro, Segunda-feira

    Tempo Temperatura Precipitação Vento Pressão Humidade
    00:00 +17°C° 0 mm 2 m/s 588 mmHg 34%
    01:00 +16°C° 0 mm 2 m/s 587 mmHg 39%
    02:00 +16°C° 0 mm 2 m/s 587 mmHg 43%
    03:00 +15°C° 0 mm 1 m/s 586 mmHg 46%
    04:00 +15°C° 0 mm 1 m/s 586 mmHg 49%
    05:00 +14°C° 0 mm 1 m/s 586 mmHg 51%
    06:00 +15°C° 0 mm 1 m/s 586 mmHg 51%
    07:00 +16°C° 0 mm 1 m/s 587 mmHg 50%
    08:00 +16°C° 0 mm 1 m/s 587 mmHg 49%
    09:00 +18°C° 0 mm 1 m/s 588 mmHg 43%
    10:00 +20°C° 0 mm 1 m/s 588 mmHg 37%
    11:00 +20°C° 0 mm 2 m/s 588 mmHg 31%
    12:00 +21°C° 0 mm 2 m/s 588 mmHg 27%
    13:00 +22°C° 0 mm 3 m/s 588 mmHg 22%
    14:00 +24°C° 0 mm 3 m/s 588 mmHg 17%
    15:00 +25°C° 0 mm 4 m/s 588 mmHg 16%
    16:00 +25°C° 0 mm 4 m/s 588 mmHg 14%
    17:00 +25°C° 0 mm 5 m/s 587 mmHg 13%
    18:00 +23°C° 0 mm 4 m/s 587 mmHg 14%
    19:00 +21°C° 0 mm 4 m/s 587 mmHg 16%
    20:00 +20°C° 0 mm 4 m/s 587 mmHg 17%
    21:00 +19°C° 0 mm 3 m/s 587 mmHg 18%
    22:00 +18°C° 0 mm 3 m/s 587 mmHg 19%
    23:00 +18°C° 0 mm 2 m/s 587 mmHg 21%

    25 Setembro, Terça-feira

    Tempo Temperatura Precipitação Vento Pressão Humidade
    00:00 +17°C° 0 mm 2 m/s 587 mmHg 22%
    01:00 +16°C° 0 mm 2 m/s 586 mmHg 23%
    02:00 +16°C° 0 mm 2 m/s 586 mmHg 24%
    03:00 +15°C° 0 mm 1 m/s 586 mmHg 25%
    04:00 +15°C° 0 mm 1 m/s 585 mmHg 26%
    05:00 +14°C° 0 mm 1 m/s 585 mmHg 28%
    06:00 +15°C° 0 mm 1 m/s 586 mmHg 26%
    07:00 +16°C° 0 mm 1 m/s 587 mmHg 25%
    08:00 +18°C° 0 mm 1 m/s 588 mmHg 24%
    09:00 +19°C° 0 mm 1 m/s 588 mmHg 21%
    10:00 +20°C° 0 mm 1 m/s 588 mmHg 19%
    11:00 +22°C° 0 mm 1 m/s 589 mmHg 17%
    12:00 +23°C° 0 mm 2 m/s 589 mmHg 16%
    13:00 +24°C° 0 mm 2 m/s 589 mmHg 14%
    14:00 +25°C° 0 mm 3 m/s 588 mmHg 13%
    15:00 +25°C° 0 mm 3 m/s 588 mmHg 12%
    16:00 +25°C° 0 mm 4 m/s 588 mmHg 12%
    17:00 +25°C° 0 mm 4 m/s 588 mmHg 12%
    18:00 +23°C° 0 mm 4 m/s 588 mmHg 13%
    19:00 +22°C° 0 mm 3 m/s 588 mmHg 14%
    20:00 +20°C° 0 mm 3 m/s 588 mmHg 15%
    21:00 +20°C° 0 mm 2 m/s 588 mmHg 17%
    22:00 +19°C° 0 mm 2 m/s 588 mmHg 18%
    23:00 +18°C° 0 mm 2 m/s 587 mmHg 19%
    Mostrar mais